Satellite: INMARSAT 3-F1
Catalog number: 23839
Epoch time:      103039.83740418
Element set:     864 
Inclination:        0.0590 deg
RA of node:       345.5703 deg
Eccentricity:    0.0005087
Arg of perigee:   352.8007 deg
Mean anomaly:     165.4650 deg
Mean motion:    1.00272502 rev/day
Decay rate:    2.4999E-007 rev/day^2
Epoch rev:            2511
Checksum:              288

Satellite: ASTRA 1F
Catalog number: 23842
Epoch time:      103037.00000000
Element set:     558 
Inclination:        0.0122 deg
RA of node:       319.8851 deg
Eccentricity:    0.0002995
Arg of perigee:    65.1991 deg
Mean anomaly:     129.8369 deg
Mean motion:    1.00273184 rev/day
Decay rate:    1.2100E-006 rev/day^2
Epoch rev:            2499
Checksum:              254

Satellite: JAS 2
Catalog number: 24278
Epoch time:      103041.48012569
Element set:     559 
Inclination:       98.5347 deg
RA of node:       193.7971 deg
Eccentricity:    0.0349943
Arg of perigee:   237.4601 deg
Mean anomaly:     119.2284 deg
Mean motion:   13.52871583 rev/day
Decay rate:    4.4999E-007 rev/day^2
Epoch rev:           32021
Checksum:              342

Satellite: UNAMSAT
Catalog number: 24305
Epoch time:      103040.74603033
Element set:     661 
Inclination:       82.9359 deg
RA of node:       269.3100 deg
Eccentricity:    0.0028629
Arg of perigee:   226.2414 deg
Mean anomaly:     133.6361 deg
Mean motion:   13.73450989 rev/day
Decay rate:    2.0499E-006 rev/day^2
Epoch rev:           32227
Checksum:              292

Satellite: INMARSAT 3-F2
Catalog number: 24307
Epoch time:      103038.02787617
Element set:     80 
Inclination:        0.0630 deg
RA of node:        35.8581 deg
Eccentricity:    0.0006606
Arg of perigee:   335.3144 deg
Mean anomaly:     120.0042 deg
Mean motion:    1.00271971 rev/day
Decay rate:   -1.2100E-006 rev/day^2
Epoch rev:            2350
Checksum:              336

Satellite: HOT BIRD 2
Catalog number: 24665
Epoch time:      103022.98977813
Element set:     340 
Inclination:        0.0347 deg
RA of node:       162.8644 deg
Eccentricity:    0.0004202
Arg of perigee:   151.1719 deg
Mean anomaly:     177.1880 deg
Mean motion:    1.00271548 rev/day
Decay rate:    9.9999E-009 rev/day^2
Epoch rev:            2299
Checksum:              314

Satellite: INMARSAT 3-F3
Catalog number: 24674
Epoch time:      103038.40582758
Element set:     985 
Inclination:        0.0310 deg
RA of node:       322.4679 deg
Eccentricity:    0.0004281
Arg of perigee:   343.8370 deg
Mean anomaly:     155.0355 deg
Mean motion:    1.00275214 rev/day
Decay rate:    4.5999E-007 rev/day^2
Epoch rev:            2247
Checksum:              298

Satellite: GOES 10
Catalog number: 24786
Epoch time:      103036.66923413
Element set:     534 
Inclination:        0.1055 deg
RA of node:       108.1749 deg
Eccentricity:    0.0003144
Arg of perigee:   218.8964 deg
Mean anomaly:     275.0212 deg
Mean motion:    1.00287729 rev/day
Decay rate:    8.2000E-007 rev/day^2
Epoch rev:            2120
Checksum:              370

Satellite: INMARSAT 3-F4
Catalog number: 24819
Epoch time:      103041.33764581
Element set:     878 
Inclination:        0.0731 deg
RA of node:       292.2479 deg
Eccentricity:    0.0003919
Arg of perigee:    49.7449 deg
Mean anomaly:     225.5640 deg
Mean motion:    1.00272216 rev/day
Decay rate:   -2.7599E-006 rev/day^2
Epoch rev:            2092
Checksum:              311

Satellite: FENGYUN 2A
Catalog number: 24834
Epoch time:      103038.73979775
Element set:     954 
Inclination:        2.5457 deg
RA of node:        88.5742 deg
Eccentricity:    0.0003066
Arg of perigee:   269.5556 deg
Mean anomaly:     130.8933 deg
Mean motion:    1.00259270 rev/day
Decay rate:   -1.7900E-006 rev/day^2
Epoch rev:            2073
Checksum:              317

Satellite: HOT BIRD 3
Catalog number: 24931
Epoch time:      103023.22766377
Element set:     421 
Inclination:        0.0604 deg
RA of node:       227.5595 deg
Eccentricity:    0.0010036
Arg of perigee:    81.3762 deg
Mean anomaly:     268.1866 deg
Mean motion:    1.00274291 rev/day
Decay rate:    9.9999E-009 rev/day^2
Epoch rev:            1980
Checksum:              302

Satellite: METEOSAT 7
Catalog number: 24932
Epoch time:      103040.02185186
Element set:     244 
Inclination:        0.1944 deg
RA of node:        60.0395 deg
Eccentricity:    0.0001114
Arg of perigee:   262.1122 deg
Mean anomaly:     184.6681 deg
Mean motion:    1.00277589 rev/day
Decay rate:    7.9999E-008 rev/day^2
Epoch rev:            1992
Checksum:              293

Satellite: ASTRA 1G
Catalog number: 25071
Epoch time:      103037.00000000
Element set:     389 
Inclination:        0.0122 deg
RA of node:       319.8851 deg
Eccentricity:    0.0002995
Arg of perigee:    65.1991 deg
Mean anomaly:     129.8159 deg
Mean motion:    1.00273184 rev/day
Decay rate:    1.2100E-006 rev/day^2
Epoch rev:            1901
Checksum:              236

Satellite: INMARSAT 3-F5
Catalog number: 25153
Epoch time:      103038.03923034
Element set:     841 
Inclination:        0.4526 deg
RA of node:       356.3786 deg
Eccentricity:    0.0004512
Arg of perigee:   320.8593 deg
Mean anomaly:     218.6620 deg
Mean motion:    1.00276425 rev/day
Decay rate:    1.4500E-006 rev/day^2
Epoch rev:            1838
Checksum:              270

Satellite: HOT BIRD 4
Catalog number: 25237
Epoch time:      103013.80550721
Element set:     325 
Inclination:        0.0242 deg
RA of node:       116.4838 deg
Eccentricity:    0.0007929
Arg of perigee:   193.6371 deg
Mean anomaly:     105.7449 deg
Mean motion:    1.00276095 rev/day
Decay rate:    1.0700E-006 rev/day^2
Epoch rev:            1818
Checksum:              265

Satellite: NOAA 15
Catalog number: 25338
Epoch time:      103041.09769587
Element set:     0 
Inclination:       98.5501 deg
RA of node:        63.4770 deg
Eccentricity:    0.0010519
Arg of perigee:   346.9532 deg
Mean anomaly:      13.1374 deg
Mean motion:   14.24240470 rev/day
Decay rate:    2.0099E-006 rev/day^2
Epoch rev:           24659
Checksum:              296

Satellite: RESURS O1-N4
Catalog number: 25394
Epoch time:      103041.20344114
Element set:     444 
Inclination:       98.6344 deg
RA of node:       119.2873 deg
Eccentricity:    0.0002105
Arg of perigee:   116.2322 deg
Mean anomaly:     243.9073 deg
Mean motion:   14.23874550 rev/day
Decay rate:    1.5800E-006 rev/day^2
Epoch rev:           23834
Checksum:              274

Satellite: TMSAT
Catalog number: 25396
Epoch time:      103039.90628136
Element set:     821 
Inclination:       98.6277 deg
RA of node:       117.1987 deg
Eccentricity:    0.0003322
Arg of perigee:   147.1878 deg
Mean anomaly:     212.9508 deg
Mean motion:   14.23508183 rev/day
Decay rate:   -4.3000E-007 rev/day^2
Epoch rev:           23815
Checksum:              310

Satellite: TECHSAT 1B
Catalog number: 25397
Epoch time:      103035.63506632
Element set:     135 
Inclination:       98.6227 deg
RA of node:       111.9131 deg
Eccentricity:    0.0001642
Arg of perigee:   150.2515 deg
Mean anomaly:     209.8757 deg
Mean motion:   14.22956023 rev/day
Decay rate:   -4.3000E-007 rev/day^2
Epoch rev:           23751
Checksum:              275

Satellite: ASTRA 2A
Catalog number: 25462
Epoch time:      103037.00000000
Element set:     530 
Inclination:        0.0385 deg
RA of node:       308.7109 deg
Eccentricity:    0.0004824
Arg of perigee:   280.8620 deg
Mean anomaly:     294.3465 deg
Mean motion:    1.00272094 rev/day
Decay rate:    1.5099E-006 rev/day^2
Epoch rev:            1631
Checksum:              238

Satellite: EUTELSAT W2
Catalog number: 25491
Epoch time:      103039.85113642
Element set:     574 
Inclination:        0.0046 deg
RA of node:       169.8842 deg
Eccentricity:    0.0008510
Arg of perigee:    54.3751 deg
Mean anomaly:     236.7585 deg
Mean motion:    1.00274117 rev/day
Decay rate:    1.1299E-006 rev/day^2
Epoch rev:            1595
Checksum:              287

Satellite: HOT BIRD 5
Catalog number: 25495
Epoch time:      103038.05043983
Element set:     499 
Inclination:        0.0465 deg
RA of node:       259.5944 deg
Eccentricity:    0.0004088
Arg of perigee:    57.9351 deg
Mean anomaly:     230.4572 deg
Mean motion:    1.00271278 rev/day
Decay rate:    1.5900E-006 rev/day^2
Epoch rev:            1590
Checksum:              297

Satellite: SEDSAT 1
Catalog number: 25509
Epoch time:      103040.62924852
Element set:     775 
Inclination:       31.4275 deg
RA of node:       203.6652 deg
Eccentricity:    0.0357910
Arg of perigee:   224.8805 deg
Mean anomaly:     132.2348 deg
Mean motion:   14.27417029 rev/day
Decay rate:    7.4800E-006 rev/day^2
Epoch rev:           22403
Checksum:              289

Satellite: PAN SAT
Catalog number: 25520
Epoch time:      103039.80240170
Element set:     636 
Inclination:       28.4596 deg
RA of node:       288.9042 deg
Eccentricity:    0.0006109
Arg of perigee:   243.0057 deg
Mean anomaly:     116.9936 deg
Mean motion:   15.13828821 rev/day
Decay rate:    2.8340E-005 rev/day^2
Epoch rev:           23610
Checksum:              394

Satellite: ISS (ZARYA)
Catalog number: 25544
Epoch time:      103041.49156250
Element set:     672 
Inclination:       51.6367 deg
RA of node:       296.5301 deg
Eccentricity:    0.0005440
Arg of perigee:   132.0776 deg
Mean anomaly:     234.5537 deg
Mean motion:   15.60627092 rev/day
Decay rate:    3.2662E-004 rev/day^2
Epoch rev:           24124
Checksum:              396

